Weather Roundup
Issued by NWS Chicago, IL

Home | Current Version | Previous Version | Graphics & Text | Print | Product List | Glossary On
Versions: 1 2 3 4 5 6 7 8 9 10 11 12 13 14 15 16 17 18 19 20 21 22 23 24 25 26 27 28 29 30 31 32 33 34 35 36 37 38 39 40 41 42 43 44 45 46 47 48 49 50
000
NZUS59 KLOT 271508
HRRLOT

CHICAGO AREA WEATHER ROUNDUP
NATIONAL WEATHER SERVICE CHICAGO/ROMEOVILLE IL
1000 AM CDT WED JUL 27 2016

NOTE: "FAIR" INDICATES FEW OR NO CLOUDS BELOW 12,000 FEET WITH NO
SIGNIFICANT WEATHER AND/OR OBSTRUCTIONS TO VISIBILITY.

* THESE STATIONS ARE NOT UNDER NWS QUALITY CONTROL. THEY ALSO MAY NOT
  REPORT WEATHER SUCH AS PRECIPITATION OR FOG.

ILZ005-006-012>014-019>023-271600-
NORTHEAST ILLINOIS

CITY           SKY/WX    TMP DP  RH WIND       PRES   REMARKS
OHARE          MOSUNNY   84  62  47 VRB3      30.00F HX  85
MIDWAY         MOSUNNY   85  64  49 VRB5      30.01S HX  86
AURORA         SUNNY     82  69  64 SW3       30.03S HX  85
LANSING*       SUNNY     82  65  57 CALM      30.02S HX  84
JOLIET*        MOSUNNY   82  72  70 SW3       30.02S HX  87
WAUKEGAN       SUNNY     83  67  58 VRB3      30.00F HX  85
DUPAGE AIRPORT SUNNY     82  64  54 W3        30.01F HX  83
WHEELING       SUNNY     82  63  52 CALM      30.02F HX  83
KANKAKEE*      SUNNY     82  69  65 CALM      30.03F HX  85
MORRIS*        SUNNY     79  71  75 CALM      30.01F HX  82
LEWIS AIRPORT* SUNNY     81  66  61 CALM      30.02F HX  83
NORTHERLY ISL    N/A     79  70  74 CALM        N/A  HX  82
$$

WIZ051-052-058>065-066-070>072-271600-
SOUTHEAST WISCONSIN

CITY           SKY/WX    TMP DP  RH WIND       PRES   REMARKS
MILWAUKEE      PTSUNNY   83  67  58 NW7       30.00S HX  85
KENOSHA*       SUNNY     82  67  60 W6        30.01F HX  84
RACINE*        SUNNY     83  68  60 VRB7      30.02F HX  86
BURLINGTON     SUNNY     82  66  59 NW6       30.02R HX  84
WAUKESHA       CLOUDY    79  64  61 W7        30.03S HX  81
WEST BEND      SUNNY     81  68  65 W5        30.01S HX  83
$$

INZ001>003-010>013-019-020-271600-
NORTHWEST INDIANA

CITY           SKY/WX    TMP DP  RH WIND       PRES   REMARKS
GARY*          MOSUNNY   82  70  65 CALM      30.02F HX  86
MICHIGAN CITY* NOT AVBL
RENSSELAER*    NOT AVBL
VALPARAISO     SUNNY     82  66  58 SW6       30.03S HX  84
$$

LMZ740>746-271600-
SOUTHERN LAKE MICHIGAN

STATION/POSITION TIME  SKY/WX   TEMP WIND        PRES    VSBY
                                AIR  DIR/SP/G
                 (UTC)          (F)  (DEG/KT/KT) (MB)    (MI)
HARRISON CRIB    1400            78  160/  2/  2   N/A
BURNHAM HARBOR   1500            80  100/  1/  3   N/A
CALUMET HARBOR   1400            83   CALM  /  1 1015.8F
BURNS HARBOR     1400            75  270/  4/  5 1016.9F
MICHIGAN CITY    1400            74  230/  5/  6   N/A
$$

ABBREVIATIONS USED IN REMARKS
   TC - TEMPERATURE IN CELSIUS
  WCI - WIND CHILL INDEX
   HX - HEAT INDEX
  VSB - VISIBILITY
$$



USA.gov is the U.S. government's official web portal to all federal, state and local government web resources and services.